PAKSAT-MM1

Last updated on Thu Jul 03 2025 00:02:49 GMT+0000 (Coordinated Universal Time)

1 59915U 24104A 25182.93176292 .00000159 00000+0 00000+0 0 9990 2 59915 0.0396 231.5539 0002132 214.4856 207.7787 1.00269593 4013
UTC large
Height (km)
Speed (km/s)
/
Latitude / Longitude
Inclination (degrees)
Orbital Period (minutes)
Azimuth
Elevation
Range (km)
Doppler Factor

Next 0 passes for location: London (51.5072 / 0.1276)

Sorry there are no passes over London.